Location: *
(45.2972°S, 163.7186°W)
Time: 05:18:31
(UTC+00:00)

Daily predictions for brighter satellites

Satellite Brightness Start Highest point End
(mag) Time Altitude Azimuth Time Altitude Azimuth Time Altitude Azimuth
Cosmos 773 Rocket 4.4 03:48:20 10° NNW 03:53:32 67° WSW 03:58:45 10° SSE
METEOR-M 4.2 03:48:36 10° SSE 03:54:01 64° ENE 03:59:20 10° N
STARLINK-1290 3.7 03:52:29 10° WNW 03:55:58 52° SSW 03:59:29 10° SE
Sich 1 4.2 03:52:56 10° NE 03:56:30 24° E 04:00:07 10° SE
STARLINK-29 3.6 03:54:11 10° SW 03:57:22 39° SSE 04:00:31 10° E
Cosmos 1484 Rocket 2.9 03:53:41 10° S 03:57:37 82° WSW 04:01:25 10° NNW
STARLINK-1310 4.0 03:53:38 10° NW 03:57:45 57° NE 04:01:54 10° ESE
Cosmos 2322 3.8 03:52:09 10° NNW 03:57:48 71° ENE 04:03:30 10° SSE
ATLAS 2AS CENTAUR R/B 4.0 03:54:15 10° SSW 03:58:34 18° SSE 04:03:02 10° ESE
STARLINK-1297 3.8 03:55:10 10° WNW 03:58:38 50° SSW 04:02:08 10° SE
STARLINK-26 4.3 03:56:09 10° W 03:59:24 35° SSW 04:02:41 10° SE
Cosmos 2360 Rocket 2.7 03:55:18 10° NW 04:00:57 64° WSW 04:06:39 10° SSE
STARLINK-28 4.3 03:58:54 10° W 04:01:52 31° SSW 04:04:52 10° SE
CZ-2C R/B 3.9 03:58:18 10° S 04:02:31 33° WSW 04:06:38 10° NW
STARLINK-1319 3.9 03:58:34 10° NW 04:02:42 62° NE 04:06:53 10° ESE
STARLINK-41 4.1 04:01:09 10° W 04:04:08 34° SSW 04:07:09 10° SE
STARLINK-48 3.6 04:01:11 10° WNW 04:05:07 74° SSW 04:09:07 10° SE
Cosmos 1346 Rocket 3.0 04:01:18 10° N 04:05:08 49° E 04:09:02 10° SSE
Cosmos 2056 Rocket 4.4 04:00:56 10° S 04:05:29 27° SE 04:09:57 10° ENE
PSLV R/B 4.2 04:02:12 10° SSE 04:06:18 49° E 04:10:17 10° N
Cosmos 2333 4.3 04:00:41 10° NNW 04:06:28 78° ENE 04:12:19 10° SSE
SJ-12 3.9 04:03:18 10° SSE 04:07:30 74° ENE 04:11:36 10° N
STARLINK-1277 3.8 04:03:30 10° NW 04:07:39 68° NE 04:11:43 11° ESE
STARLINK-1276 3.7 04:08:28 10° NW 04:12:38 73° NE 04:16:30 12° ESE
CZ-2C R/B 4.4 04:12:07 10° ESE 04:13:19 11° SE 04:14:50 10° SE
Meteor 2-20 4.5 04:07:38 10° S 04:13:54 69° E 04:20:04 10° NNE
CZ-4B R/B 3.5 04:10:39 10° S 04:14:59 69° WSW 04:19:27 10° NNW
STARLINK-1291 4.1 04:12:52 10° W 04:16:05 37° SSW 04:18:57 12° SE
Meteor PRIRODA 3.8 04:12:36 10° S 04:16:22 79° WSW 04:20:05 10° NNW
STARLINK-1317 4.2 04:13:10 10° W 04:16:35 38° SSW 04:19:38 12° SE
SKYMED 2 3.9 04:12:26 10° N 04:16:49 75° WNW 04:21:16 10° SSW
STARLINK-1305 3.7 04:13:25 10° NW 04:17:38 79° NE 04:21:18 13° ESE
STARLINK-1264 4.1 04:14:46 10° W 04:17:59 37° SSW 04:20:47 13° SE
STARLINK-33 4.4 04:16:44 10° WSW 04:19:38 28° SSW 04:22:07 13° SE
STARLINK-1267 4.2 04:16:41 10° W 04:19:54 36° SSW 04:22:39 13° SE
STARLINK-1278 3.7 04:16:38 10° WNW 04:20:58 86° SSW 04:24:39 14° ESE
STARLINK-1272 4.2 04:18:35 10° W 04:21:48 36° SSW 04:24:28 14° SE
STARLINK-64 3.4 04:18:42 10° WNW 04:22:18 68° SSW 04:25:13 15° SE
STARLINK-1262 3.6 04:18:24 10° NW 04:22:36 85° NNE 04:26:05 15° ESE
Cosmos 1666 Rocket 4.3 04:18:53 10° NNE 04:22:44 30° E 04:26:36 10° SSE
STARLINK-1280 3.7 04:18:28 10° WNW 04:22:48 84° SSW 04:26:25 15° ESE
Cosmos 1340 3.1 04:19:10 10° NNW 04:22:57 64° WSW 04:26:48 10° S
STARLINK-1207 4.2 04:20:31 10° W 04:23:43 35° SSW 04:26:18 14° SE
Cosmos 1844 4.4 04:18:42 10° SSW 04:24:13 59° WNW 04:29:41 10° N
Cosmos 2219 Rocket 2.2 04:18:52 10° NNW 04:24:32 75° ENE 04:30:18 10° SSE
Cosmos 1633 Rocket 4.0 04:21:12 10° NNE 04:24:57 27° E 04:28:46 10° SSE
ALOS 2.9 04:20:54 10° S 04:25:35 58° WSW 04:30:12 10° NNW
STARLINK-1266 4.2 04:22:30 10° W 04:25:41 34° SSW 04:28:11 15° SE
H-2A R/B 2.7 04:21:47 10° S 04:26:00 71° WSW 04:30:00 10° NNW
STARLINK-1300 3.6 04:23:20 10° WNW 04:27:33 90° SW 04:30:50 16° ESE
Cosmos 1680 Rocket 3.6 04:22:28 10° N 04:27:39 57° ENE 04:32:52 10° SSE
STARLINK-1284 4.3 04:24:30 10° W 04:27:40 34° SSW 04:30:05 15° SE
CZ-4B DEB 4.3 04:22:14 10° SSE 04:27:45 64° ENE 04:33:14 10° N
Starlink 7 placeholder 4.1 04:25:05 10° WSW 04:27:59 40° NW 04:30:44 10° NNE
YAOGAN 6 4.3 04:28:41 16° E 04:28:54 16° E 04:31:14 10° NE
Shenzhou-11 Module 2.8 04:27:07 10° NW 04:29:31 33° NNE 04:31:02 17° ENE
STARLINK-1258 4.3 04:26:25 10° W 04:29:35 33° SSW 04:31:55 16° SE
Cosmos 923 Rocket 4.0 04:25:04 10° NNW 04:30:26 79° ENE 04:35:53 10° SSE
STARLINK-1292 4.3 04:28:25 10° W 04:31:34 32° SSW 04:33:49 16° SE
Meteor 2-6 Rocket 4.2 04:26:05 10° S 04:31:37 89° ESE 04:37:13 10° N
STARLINK-1295 3.7 04:28:21 10° WNW 04:32:34 84° SSW 04:35:39 18° SE
STARLINK-1274 4.4 04:30:27 10° W 04:33:35 32° SSW 04:35:45 17° SE
STARLINK-52 3.0 04:30:21 10° SW 04:33:38 61° SSE 04:36:01 17° ENE
STARLINK-1338 4.2 04:31:19 10° SW 04:34:39 32° SSE 04:36:25 21° ESE
CZ-4C R/B 4.4 04:30:19 10° SW 04:34:43 17° SSW 04:38:43 10° SSE
PAYLOAD B 4.3 04:29:18 10° SSE 04:34:50 62° ENE 04:40:19 10° N
STARLINK-1289 4.4 04:32:29 10° W 04:35:38 31° SSW 04:37:43 17° SE
Cosmos 1782 4.3 04:32:50 10° SSW 04:36:39 41° W 04:40:26 10° NNW
STARLINK-1287 3.7 04:33:19 10° WNW 04:37:31 79° SSW 04:40:24 20° SE
FALCON 9 DEB 3.4 04:34:04 10° SW 04:37:32 49° SSE 04:39:35 21° E
STARLINK-1303 4.4 04:34:29 10° W 04:37:37 31° SSW 04:39:37 18° SE
Cosmos 1862 3.3 04:34:26 10° N 04:38:28 82° E 04:42:36 10° S
Cosmos 1980 4.2 04:34:23 10° N 04:39:37 39° ENE 04:43:46 16° SE
STARLINK-1312 4.4 04:36:30 10° W 04:39:37 30° SSW 04:41:32 18° SE
STARLINK-1371 4.2 04:36:41 10° SW 04:40:05 33° SSE 04:41:37 23° ESE
Cosmos 2322 Rocket 4.3 04:37:29 10° W 04:41:45 21° SW 04:46:05 10° S
SL-4 R/B 2.8 04:39:09 10° WSW 04:42:45 47° NW 04:46:36 10° NE
STARLINK-1341 4.1 04:39:21 10° SW 04:42:47 34° SSE 04:44:13 25° ESE
STARLINK-1374 4.1 04:41:57 10° SW 04:45:24 35° SSE 04:46:42 26° ESE
NOSS 0 Rocket 4.1 04:39:57 10° N 04:45:59 54° ENE 04:51:20 14° SE
Cosmos 1238 Rocket 3.4 04:41:48 10° NNE 04:46:00 38° E 04:48:23 19° SE
Envisat 3.6 04:41:20 10° SSE 04:46:04 35° E 04:50:44 10° NNE
STARLINK-58 4.3 04:43:12 10° W 04:46:09 31° SSW 04:47:38 21° SSE
Cosmos 1805 Rocket 3.8 04:41:58 10° NNW 04:46:21 76° W 04:50:51 10° S
STARLINK-1302 3.8 04:43:18 10° WNW 04:47:30 69° SSW 04:49:59 24° SE
STARLINK-1339 4.0 04:44:38 10° SW 04:48:06 36° SSE 04:49:19 28° ESE
STARLINK-1016 4.4 04:46:03 10° NNW 04:49:54 36° NE 04:51:33 26° E
STARLINK-1377 4.0 04:46:58 10° SW 04:50:26 37° SSE 04:51:30 29° ESE
USA 234 3.9 04:47:01 15° SE 04:52:24 50° SSW 04:58:43 10° W
Cosmos 2173 Rocket 4.4 04:46:42 10° NNE 04:52:25 38° E 04:58:06 10° SSE
STARLINK-1273 3.9 04:48:19 10° WNW 04:52:29 65° SSW 04:54:46 26° SE
STARLINK-1353 4.0 04:49:39 10° SW 04:53:07 38° SSE 04:54:05 31° SE
Meteor 1-27 Rocket 3.8 04:47:26 10° S 04:53:22 72° ESE 04:59:18 10° NNE
Cosmos 1812 2.7 04:50:17 10° S 04:54:15 89° WNW 04:58:08 10° N
STARLINK-1320 3.6 04:51:33 10° SW 04:54:35 37° SSE 04:54:59 35° SE
STARLINK-1008 4.3 04:50:57 10° NNW 04:54:52 39° NE 04:56:21 29° E
STARLINK-1322 3.5 04:51:52 10° SW 04:54:54 37° SSE 04:55:18 35° SE
STARLINK-1324 3.5 04:52:14 10° SW 04:55:15 37° SSE 04:55:38 36° SE
COSMOS 2428 3.0 04:49:36 10° NNW 04:55:21 72° WSW 05:01:10 10° SSE
STARLINK-1294 3.5 04:52:35 10° SW 04:55:35 37° SSE 04:55:55 36° SE
STARLINK-1261 3.5 04:52:53 10° SW 04:55:55 38° SSE 04:56:16 36° SE
STARLINK-1375 3.9 04:52:39 10° SW 04:56:10 39° SSE 04:57:02 33° SE
STARLINK-1325 3.5 04:53:12 10° SW 04:56:15 38° SSE 04:56:35 36° SE
STARLINK-1333 3.5 04:53:35 10° SW 04:56:38 38° SSE 04:56:57 37° SE
STARLINK-1334 3.5 04:53:55 10° SW 04:56:57 38° SSE 04:57:16 37° SE
Cosmos 1461 2.6 04:53:05 10° SSW 04:57:05 65° SE 05:00:02 16° NE
Helios 1A Rocket 3.7 04:56:56 29° E 04:57:08 29° E 05:00:43 10° NNE
STARLINK-1326 3.5 04:54:15 10° SW 04:57:17 38° SSE 04:57:35 37° SE
STARLINK-1288 3.9 04:53:17 10° WNW 04:57:28 61° SSW 04:59:32 28° SE
STARLINK-1323 3.5 04:54:34 10° SW 04:57:36 38° SSE 04:57:53 37° SE
STARLINK-81 3.9 04:53:51 10° NW 04:57:37 47° NE 04:58:52 34° E
STARLINK-1349 3.5 04:54:56 10° SW 04:57:59 39° SSE 04:58:15 38° SE
STARLINK-1336 3.5 04:55:15 10° SW 04:58:18 39° SSE 04:58:33 38° SE
STARLINK-1350 3.9 04:55:03 10° SW 04:58:33 40° SSE 04:59:16 35° SE
STARLINK-1331 3.5 04:55:37 10° SW 04:58:41 39° SSE 04:58:55 38° SE
STARLINK-1344 3.5 04:55:59 10° SW 04:59:02 39° SSE 04:59:15 39° SE
STARLINK-54 3.7 04:55:29 10° NW 04:59:18 53° NE 05:00:34 36° E
STARLINK-1343 3.5 04:56:15 10° SW 04:59:19 39° SSE 04:59:31 39° SE
Cosmos 1459 Rocket 4.3 04:53:49 10° NNE 04:59:37 43° E 05:05:34 10° SSE
STARLINK-1346 3.4 04:56:40 10° SW 04:59:41 39° SSE 04:59:51 39° SSE
STARLINK-1014 4.2 04:55:51 10° NNW 04:59:51 43° NE 05:01:11 32° E
STARLINK-1328 3.4 04:56:56 10° SW 05:00:00 40° SSE 05:00:11 39° SSE
STARLINK-1354 3.4 04:57:16 10° SW 05:00:19 40° SSE 05:00:29 39° SSE
STARLINK-1347 3.4 04:57:38 10° SW 05:00:42 40° SSE 05:00:50 40° SSE
STARLINK-77 3.8 04:56:57 10° NW 05:00:44 50° NE 05:01:54 36° E
STARLINK-1357 3.4 04:57:57 10° SW 05:01:01 40° SSE 05:01:09 40° SSE
ATLAS 5 CENTAUR R/B 3.0 04:54:17 10° N 05:01:07 48° ENE 05:04:51 25° ESE
STARLINK-1352 3.8 04:57:46 10° SW 05:01:17 41° SSE 05:01:54 37° SE
STARLINK-1335 3.4 04:58:21 10° SW 05:01:25 40° SSE 05:01:32 40° SSE
STARLINK-1327 3.4 04:58:37 10° SW 05:01:41 41° SSE 05:01:48 40° SSE
STARLINK-1340 3.4 04:58:58 10° SW 05:02:02 41° SSE 05:02:08 41° SSE
STARLINK-1356 3.4 04:59:18 10° SW 05:02:23 41° SSE 05:02:27 41° SSE
STARLINK-1308 4.0 04:58:21 10° WNW 05:02:30 56° SSW 05:04:21 30° SE
STARLINK-1345 3.4 04:59:38 10° SW 05:02:42 41° SSE 05:02:47 41° SSE
STARLINK-1010 4.1 04:58:53 10° NW 05:03:02 49° NE 05:04:24 35° E
STARLINK-1355 3.4 04:59:58 10° SW 05:03:03 41° SSE 05:03:06 41° SSE
STARLINK-1321 3.4 05:00:20 10° SW 05:03:25 41° SSE 05:03:27 41° SSE
STARLINK-1358 3.4 05:00:38 10° SW 05:03:44 42° SSE 05:03:45 42° SSE
STARLINK-1368 3.7 05:00:31 10° SW 05:04:03 42° SSE 05:04:33 40° SE
STARLINK-1332 3.4 05:01:03 10° SW 05:04:07 42° SSE 05:04:08 42° SSE
STARLINK-1348 3.4 05:01:21 10° SW 05:04:25 42° SSE 05:04:25 42° SSE
Cosmos 1624 Rocket 3.9 04:59:10 10° SSW 05:04:29 77° ESE 05:09:45 10° NNE
Lacrosse 5 rocket 2.9 05:01:17 10° N 05:04:38 22° NE 05:04:38 22° NE
STARLINK-1330 3.4 05:01:39 10° SW 05:04:43 42° SSE 05:04:43 42° SSE
STARLINK-1025 4.1 05:00:47 10° NNW 05:04:47 47° NE 05:05:56 36° E
STARLINK-1363 3.4 05:02:04 10° SW 05:05:07 42° SSE 05:05:07 42° SSE
STARLINK-1337 3.4 05:02:20 10° SW 05:05:23 43° SSE 05:05:23 43° SSE
STARLINK-79 3.7 05:01:49 10° NW 05:05:38 55° NE 05:06:37 42° E
STARLINK-1342 3.4 05:02:41 10° SW 05:05:42 43° SSE 05:05:42 43° SSE
STARLINK-1364 3.4 05:02:59 10° SW 05:06:01 43° SSE 05:06:01 43° SSE
STARLINK-1376 3.4 05:03:22 10° SW 05:06:22 43° SSE 05:06:22 43° SSE
STARLINK-1360 3.4 05:03:41 10° SW 05:06:40 43° SSE 05:06:40 43° SSE
STARLINK-1369 3.7 05:03:16 10° SW 05:06:50 44° SSE 05:07:13 42° SE
CZ-4B R/B 3.1 05:01:22 10° SSE 05:06:52 83° ENE 05:12:26 10° NNW
STARLINK-1361 3.4 05:04:00 10° SW 05:06:59 43° SSE 05:06:59 43° SSE
STARLINK-78 3.6 05:03:26 10° NW 05:07:16 57° NE 05:08:11 44° E
STARLINK-1367 3.4 05:04:23 10° SW 05:07:16 43° SSE 05:07:16 43° SSE
Cosmos 2237 Rocket 2.2 05:02:02 10° N 05:07:36 60° ENE 05:11:03 24° SE
STARLINK-1366 3.4 05:04:45 10° SW 05:07:42 44° SSE 05:07:42 44° SSE
Radarsat Rocket 4.4 05:00:12 10° SSE 05:08:05 74° ENE 05:14:55 10° N
Cosmos 1943 Rocket 3.9 05:05:11 10° S 05:07:26 15° SSE 05:07:26 15° SSE
STARLINK-57 3.5 05:05:09 10° NW 05:09:01 62° NE 05:09:54 46° E
STARLINK-61 3.7 05:05:12 10° WNW 05:09:09 64° SSW 05:10:27 39° SE
Cosmos 371 Rocket 4.1 05:04:57 10° S 05:08:53 31° SE 05:08:53 31° SE
Cosmos 1707 Rocket 3.9 05:05:03 10° SSW 05:09:32 68° W 05:13:54 10° N
STARLINK-1372 3.6 05:06:03 10° SW 05:09:37 45° SSE 05:09:54 44° SE
STARLINK-1017 3.9 05:05:39 10° NW 05:09:43 51° NE 05:10:41 41° E
Cosmos 2369 Rocket 4.1 05:07:02 10° S 05:08:42 13° SSE 05:08:42 13° SSE
CORIOLIS 4.3 05:05:50 14° SSE 05:10:29 51° E 05:15:47 10° N
STARLINK-49 3.5 05:06:43 10° NW 05:10:34 60° NE 05:11:22 48° E
Cosmos 1470 Rocket 3.8 05:07:31 10° NNE 05:11:52 47° E 05:13:11 36° SE
STARLINK-27 3.5 05:08:18 10° NW 05:12:09 62° NE 05:12:53 50° E
STARLINK-1304 4.2 05:08:21 10° W 05:12:28 51° SSW 05:13:54 34° SSE
STARLINK-1378 3.6 05:09:05 10° SW 05:12:43 47° SSE 05:12:53 47° SE
STARLINK-74 3.5 05:09:56 10° NW 05:13:48 64° NE 05:14:28 53° E
STARLINK-1023 3.8 05:10:36 10° NW 05:14:41 55° NE 05:15:28 47° E
STARLINK-1286 4.3 05:10:40 10° W 05:14:47 49° SSW 05:16:08 35° SSE
STARLINK-1329 3.6 05:11:21 10° SW 05:14:59 48° SSE 05:15:02 48° SSE
STARLINK-1379 3.6 05:11:38 10° SW 05:15:14 48° SSE 05:15:16 48° SSE
STARLINK-39 3.4 05:11:33 10° NW 05:15:25 66° NE 05:16:02 55° E
NOAA 12 4.2 05:12:37 20° SSE 05:16:16 53° E 05:21:25 10° N
STARLINK-31 3.4 05:13:11 10° NW 05:17:03 68° NE 05:17:37 58° E
STARLINK-1362 3.6 05:14:32 10° SW 05:18:11 51° SSE 05:18:11 51° SSE
STARLINK-1365 3.5 05:14:45 10° SW 05:18:26 52° SSE 05:18:26 52° SSE
STARLINK-69 3.3 05:14:58 10° NW 05:18:51 76° NE 05:19:23 62° E
Cosmos 1371 Rocket 4.3 05:14:05 10° SSW 05:19:30 72° WNW 05:24:51 10° N
STARLINK-1007 3.7 05:15:33 10° NW 05:19:40 60° NE 05:20:16 53° ENE
ATLAS CENTAUR R/B 3.7 05:17:01 10° S 05:18:35 14° SSE 05:18:35 14° SSE
STARLINK-21 3.3 05:16:28 10° NW 05:20:21 73° NE 05:20:47 64° E
STARLINK-1373 3.6 05:17:19 10° SW 05:20:51 52° SSE 05:20:51 52° SSE
AQUARIUS 4.1 05:18:30 24° SSE 05:21:17 73° ENE 05:25:48 10° N
STARLINK-45 3.3 05:18:16 10° NW 05:22:10 81° NE 05:22:35 69° ESE
SL-16 R/B 3.1 05:18:28 10° NNE 05:22:27 29° ENE 05:22:27 29° ENE
Cosmos 1862 Rocket 3.5 05:18:57 10° S 05:23:34 81° E 05:28:05 10° N
STARLINK-1390 3.6 05:20:01 10° SW 05:23:22 52° S 05:23:22 52° S
STARLINK-70 3.3 05:19:52 10° NW 05:23:45 81° NE 05:24:06 72° E
NOSS 3-4 (A) 4.2 05:17:45 10° SSW 05:24:28 37° SE 05:25:49 34° ESE
NOSS 3-4 (C) 4.3 05:17:50 10° SSW 05:24:33 36° SE 05:25:52 34° ESE
STARLINK-1048 3.6 05:20:29 10° NW 05:24:38 65° NE 05:25:03 61° ENE
STARLINK-76 3.3 05:21:23 10° NW 05:25:17 80° NE 05:25:32 74° E
STARLINK-71 3.4 05:21:24 10° NW 05:25:29 84° NE 05:25:57 69° ESE
Cosmos 1802 Rocket 4.1 05:19:39 10° NNE 05:25:56 56° E 05:32:15 10° SSE
STARLINK-23 3.3 05:23:02 10° NW 05:26:56 82° NE 05:27:06 78° E
Cosmos 1441 Rocket 4.3 05:23:46 10° N 05:26:08 32° NNE 05:26:08 32° NNE
Cosmos 2333 Rocket 3.5 05:22:54 10° WNW 05:28:14 37° SW 05:33:32 10° SSE
Okean O Rocket 2.3 05:24:01 10° S 05:28:24 55° WSW 05:32:46 10° NNW
STARLINK-32 3.3 05:24:39 10° NW 05:28:32 84° NNE 05:28:40 82° ENE
Cosmos 1725 Rocket 4.3 05:23:00 10° NNE 05:28:47 40° E 05:29:00 40° E
H-2A R/B 3.8 05:25:18 11° S 05:28:53 46° WSW 05:32:38 10° NW
STARLINK-1306 4.4 05:25:11 10° W 05:29:16 42° SSW 05:30:00 38° S
IRS-1C Rocket 4.2 05:28:07 43° ESE 05:29:23 52° E 05:34:33 10° N
STARLINK-1049 3.5 05:25:25 10° NW 05:29:35 71° NE 05:29:49 69° ENE
STARLINK-40 3.3 05:26:20 10° NW 05:30:15 86° NE 05:30:18 85° ENE
Radarsat 4.4 05:26:38 18° SSE 05:30:38 78° ENE 05:35:53 10° N
STARLINK-44 3.3 05:27:55 10° NW 05:31:48 88° NNE 05:31:48 88° NNE
Cosmos 2278 Rocket 2.6 05:26:23 10° SSW 05:32:02 63° WNW 05:37:38 10° N
STARLINK-1281 4.4 05:28:27 10° W 05:32:29 42° SSW 05:33:02 40° S
STARLINK-29 4.4 05:30:25 10° WSW 05:33:29 35° NW 05:33:59 33° NNW
STARLINK-37 3.4 05:29:46 10° WNW 05:33:38 85° SW 05:33:38 85° SW
NOSS 3-3 (A) 4.5 05:25:21 10° NNW 05:33:41 76° NE 05:37:39 32° SE
NOSS 3-3 (C) 4.5 05:25:27 10° NNW 05:33:47 75° NE 05:37:42 33° SE
STARLINK-1051 3.5 05:30:23 10° NW 05:34:35 77° NE 05:34:37 77° NE
STARLINK-36 3.4 05:31:11 10° WNW 05:34:57 83° WNW 05:34:57 83° WNW
SMAP 3.2 05:32:36 18° S 05:36:10 75° WSW 05:40:51 10° NNW
STARLINK-68 3.5 05:33:03 10° WNW 05:36:47 77° WSW 05:36:47 77° WSW
STARLINK-1310 4.5 05:33:30 10° W 05:37:29 40° SSW 05:37:49 39° S
STARLINK-63 3.5 05:34:38 10° WNW 05:38:18 75° W 05:38:18 75° W
STARLINK-35 3.6 05:36:08 10° WNW 05:39:42 72° W 05:39:42 72° W
STARLINK-51 3.7 05:37:51 10° WNW 05:41:22 69° W 05:41:22 69° W
STARLINK-30 3.7 05:39:29 10° WNW 05:42:55 66° W 05:42:55 66° W
FengYun 1-2 T 4.2 05:43:33 58° E 05:43:59 60° E 05:49:30 10° N
STARLINK-1028 3.7 05:40:20 10° NW 05:44:12 75° NW 05:44:12 75° NW
STARLINK-72 3.8 05:41:11 10° WNW 05:44:35 63° W 05:44:35 63° W
Cosmos 2056 Rocket 4.5 05:42:43 10° SSW 05:47:52 47° WNW 05:52:53 10° N
STARLINK-59 4.0 05:44:34 10° WNW 05:47:48 56° W 05:47:48 56° W
STARLINK-1021 3.9 05:45:18 10° WNW 05:48:58 67° WNW 05:48:58 67° WNW
Tsikada Rocket 4.3 05:43:13 10° S 05:48:36 48° SE 05:48:36 48° SE
STARLINK-56 4.1 05:46:07 10° WNW 05:49:17 54° W 05:49:17 54° W
ATLAS 2AS CENTAUR R/B 2.9 05:44:48 10° SSW 05:51:07 46° SE 05:51:07 46° SE
STARLINK-73 4.2 05:47:46 10° WNW 05:50:52 52° W 05:50:52 52° W
CZ-2C R/B 2.9 05:53:39 54° SSE 05:53:39 54° SSE 05:58:00 10° S
STARLINK-38 4.3 05:49:26 10° WNW 05:52:27 49° W 05:52:27 49° W
STARLINK-1019 4.1 05:50:18 10° WNW 05:53:46 59° WNW 05:53:46 59° WNW
STARLINK-24 4.3 05:50:50 10° WNW 05:54:10 52° WSW 05:54:10 52° WSW
STARLINK-65 4.4 05:51:05 10° WNW 05:54:03 47° W 05:54:03 47° W
STARLINK-53 4.5 05:53:00 10° WNW 05:55:57 45° W 05:55:57 45° W
Cosmos 1818 4.1 05:54:03 10° NW 05:59:21 54° SW 06:00:43 43° S
STARLINK-1012 4.4 05:55:17 10° WNW 05:58:32 52° W 05:58:32 52° W
Cosmos 1933 Rocket 4.4 05:55:50 10° NNW 05:58:46 42° NNW 05:58:46 42° NNW
YAOGAN 6 4.1 06:03:03 37° W 06:03:03 37° W 06:06:03 10° NW
Meteor 1-25 Rocket 4.2 06:00:43 10° NNW 06:06:18 76° WSW 06:07:53 48° S
Centaur D AC-29 4.0 06:07:36 10° NNW 06:08:13 10° NNW 06:08:48 10° NNW
Meteor 1-18 Rocket 4.3 06:03:11 10° S 06:08:02 65° S 06:08:02 65° S
Cosmos 2219 Rocket 4.3 06:04:47 10° W 06:09:08 22° SW 06:13:00 12° S
Cosmos 1452 Rocket 4.0 06:13:08 10° SSW 06:17:29 57° SW 06:17:29 57° SW
Cosmos 2061 Rocket 4.3 06:18:49 10° NNW 06:25:04 65° W 06:28:12 31° S
CZ-4C R/B 4.4 06:22:06 10° SSW 06:24:38 15° S 06:24:38 15° S
Cosmos 2297 4.4 06:26:28 10° SSW 06:30:32 47° SW 06:30:32 47° SW
USA 234 4.3 06:34:22 33° S 06:34:33 33° S 06:40:17 10° WSW
Lacrosse 5 rocket 4.0 06:39:04 10° WNW 06:40:18 19° WNW 06:40:18 19° WNW
ATLAS 5 CENTAUR R/B 3.3 06:39:12 10° WNW 06:46:02 47° SW 06:46:25 47° SSW
Cosmos 2237 Rocket 4.0 06:47:24 10° WNW 06:52:05 26° SW 06:52:55 25° SW
Cosmos 1943 Rocket 4.3 06:47:44 10° SSW 06:48:59 17° SSW 06:48:59 17° SSW
Cosmos 2369 Rocket 4.5 06:49:30 10° SSW 06:50:29 15° SSW 06:50:29 15° SSW
SL-16 R/B 4.0 07:01:48 10° NW 07:04:24 26° WNW 07:04:24 26° WNW
ATLAS 2AS CENTAUR R/B 4.4 07:35:42 10° SW 07:38:34 26° WSW 07:38:34 26° WSW
